Time,TemperatureF,DewpointF,PressureIn,WindDirection,WindDirectionDegrees,WindSpeedMPH,WindSpeedGustMPH,Humidity,HourlyPrecipIn,Conditions,Clouds,dailyrainin,SoftwareType,DateUTC
2013-02-06 00:00:00,30.7,26.5,29.27,West,270,1.8,1.8,83,0.00,,,0.00,WUHU21623XXSP,2013-02-06 05:00:00,
2013-02-06 00:05:00,30.7,26.2,29.27,NNW,337,2.2,2.2,83,0.00,,,0.00,WUHU21623XXSP,2013-02-06 05:05:00,
2013-02-06 00:10:00,30.6,26.0,29.27,NNW,337,0.0,2.2,83,0.00,,,0.00,WUHU21623XXSP,2013-02-06 05:10:00,
2013-02-06 00:15:00,30.6,26.0,29.27,NW,315,0.0,2.2,83,0.00,,,0.00,WUHU21623XXSP,2013-02-06 05:15:00,
2013-02-06 00:20:00,30.6,26.0,29.27,NW,315,0.9,0.9,83,0.00,,,0.00,WUHU21623XXSP,2013-02-06 05:20:00,
2013-02-06 00:25:00,30.4,26.0,29.27,WNW,292,0.0,0.9,83,0.00,,,0.00,WUHU21623XXSP,2013-02-06 05:25:00,
2013-02-06 00:30:00,30.4,25.8,29.28,WNW,292,0.0,0.0,83,0.00,,,0.00,WUHU21623XXSP,2013-02-06 05:30:00,
2013-02-06 00:35:00,30.4,25.8,29.28,WNW,292,0.0,0.0,83,0.00,,,0.00,WUHU21623XXSP,2013-02-06 05:35:00,
2013-02-06 00:40:00,30.4,26.1,29.28,West,270,0.0,0.0,84,0.00,,,0.00,WUHU21623XXSP,2013-02-06 05:40:00,
2013-02-06 00:45:00,30.2,26.1,29.29,NW,315,0.0,0.0,84,0.00,,,0.00,WUHU21623XXSP,2013-02-06 05:45:00,
2013-02-06 00:50:00,30.2,26.0,29.29,NW,315,0.0,0.0,84,0.00,,,0.00,WUHU21623XXSP,2013-02-06 05:50:00,
2013-02-06 00:55:00,30.2,26.0,29.29,NW,315,0.0,1.8,84,0.00,,,0.00,WUHU21623XXSP,2013-02-06 05:55:00,
2013-02-06 01:00:00,30.2,26.0,29.29,NNW,337,0.0,1.8,84,0.00,,,0.00,WUHU21623XXSP,2013-02-06 06:00:00,
2013-02-06 01:05:00,30.0,25.8,29.29,WNW,292,0.0,0.0,84,0.00,,,0.00,WUHU21623XXSP,2013-02-06 06:05:00,
2013-02-06 01:11:00,30.0,25.8,29.30,NW,315,0.0,0.0,84,0.00,,,0.00,WUHU21623XXSP,2013-02-06 06:11:00,
2013-02-06 01:16:00,30.0,25.8,29.30,NNW,337,0.0,0.0,84,0.00,,,0.00,WUHU21623XXSP,2013-02-06 06:16:00,
2013-02-06 01:21:00,30.0,25.8,29.30,WNW,292,0.0,0.0,84,0.00,,,0.00,WUHU21623XXSP,2013-02-06 06:21:00,
2013-02-06 01:26:00,30.0,25.8,29.30,NNW,337,0.0,0.0,84,0.00,,,0.00,WUHU21623XXSP,2013-02-06 06:26:00,
2013-02-06 01:31:00,30.0,25.8,29.30,NNW,337,6.5,6.5,84,0.00,,,0.00,WUHU21623XXSP,2013-02-06 06:31:00,
2013-02-06 01:36:00,29.8,25.3,29.31,NNW,337,3.8,6.5,83,0.00,,,0.00,WUHU21623XXSP,2013-02-06 06:36:00,
2013-02-06 01:41:00,29.7,25.1,29.31,NW,315,2.2,3.8,83,0.00,,,0.00,WUHU21623XXSP,2013-02-06 06:41:00,
2013-02-06 01:46:00,29.5,24.8,29.31,WSW,247,0.0,4.7,82,0.00,,,0.00,WUHU21623XXSP,2013-02-06 06:46:00,
2013-02-06 01:51:00,29.5,24.7,29.32,NNW,337,2.2,4.7,82,0.00,,,0.00,WUHU21623XXSP,2013-02-06 06:51:00,
2013-02-06 01:56:00,29.3,24.5,29.32,North,0,2.9,2.9,82,0.00,,,0.00,WUHU21623XXSP,2013-02-06 06:56:00,
2013-02-06 02:01:00,29.1,24.0,29.32,NNW,337,4.3,4.3,81,0.00,,,0.00,WUHU21623XXSP,2013-02-06 07:01:00,
2013-02-06 02:06:00,29.1,23.7,29.32,NNW,337,5.6,5.6,80,0.00,,,0.00,WUHU21623XXSP,2013-02-06 07:06:00,
2013-02-06 02:11:00,29.1,23.7,29.33,NNW,337,5.4,5.6,80,0.00,,,0.00,WUHU21623XXSP,2013-02-06 07:11:00,
2013-02-06 02:16:00,28.9,23.5,29.34,NNW,337,4.7,5.6,80,0.00,,,0.00,WUHU21623XXSP,2013-02-06 07:16:00,
2013-02-06 02:21:00,28.9,23.2,29.34,NNW,337,4.7,5.4,79,0.00,,,0.00,WUHU21623XXSP,2013-02-06 07:21:00,
2013-02-06 02:26:00,28.9,23.2,29.33,North,0,0.0,4.7,79,0.00,,,0.00,WUHU21623XXSP,2013-02-06 07:26:00,
2013-02-06 02:31:00,28.9,23.2,29.34,North,0,0.0,4.7,79,0.00,,,0.00,WUHU21623XXSP,2013-02-06 07:31:00,
2013-02-06 02:36:00,28.9,23.2,29.34,NNW,337,4.7,4.7,79,0.00,,,0.00,WUHU21623XXSP,2013-02-06 07:36:00,
2013-02-06 02:41:00,28.8,23.0,29.34,NNW,337,0.0,4.7,79,0.00,,,0.00,WUHU21623XXSP,2013-02-06 07:41:00,
2013-02-06 02:46:00,28.8,23.0,29.35,NNW,337,0.0,4.7,79,0.00,,,0.00,WUHU21623XXSP,2013-02-06 07:46:00,
2013-02-06 02:51:00,28.8,23.0,29.35,NNW,337,0.0,0.0,78,0.00,,,0.00,WUHU21623XXSP,2013-02-06 07:51:00,
2013-02-06 02:56:00,28.6,22.7,29.35,WNW,292,0.0,0.0,78,0.00,,,0.00,WUHU21623XXSP,2013-02-06 07:56:00,
2013-02-06 03:01:00,28.6,22.5,29.35,WNW,292,0.0,0.0,78,0.00,,,0.00,WUHU21623XXSP,2013-02-06 08:01:00,
2013-02-06 03:06:00,28.6,22.5,29.35,WNW,292,0.0,0.0,78,0.00,,,0.00,WUHU21623XXSP,2013-02-06 08:06:00,
2013-02-06 03:11:00,28.6,22.5,29.35,NNW,337,8.5,8.5,78,0.00,,,0.00,WUHU21623XXSP,2013-02-06 08:11:00,
2013-02-06 03:17:00,28.6,22.5,29.35,NNW,337,8.5,8.5,78,0.00,,,0.00,WUHU21623XXSP,2013-02-06 08:17:00,
2013-02-06 03:22:00,28.6,22.5,29.35,NNW,337,8.5,8.5,78,0.00,,,0.00,WUHU21623XXSP,2013-02-06 08:22:00,
2013-02-06 03:32:00,28.4,22.4,29.36,West,270,0.0,0.0,78,0.00,,,0.00,WUHU21623XXSP,2013-02-06 08:32:00,
2013-02-06 03:37:00,28.4,22.4,29.36,West,270,0.0,0.0,78,0.00,,,0.00,WUHU21623XXSP,2013-02-06 08:37:00,
2013-02-06 03:43:00,28.4,22.4,29.36,West,270,0.0,0.0,77,0.00,,,0.00,WUHU21623XXSP,2013-02-06 08:43:00,
2013-02-06 03:48:00,28.4,22.1,29.36,West,270,0.0,0.0,77,0.00,,,0.00,WUHU21623XXSP,2013-02-06 08:48:00,
2013-02-06 03:53:00,28.4,22.1,29.36,West,270,0.0,0.0,77,0.00,,,0.00,WUHU21623XXSP,2013-02-06 08:53:00,
2013-02-06 03:58:00,28.4,22.1,29.36,West,270,0.0,0.0,77,0.00,,,0.00,WUHU21623XXSP,2013-02-06 08:58:00,
2013-02-06 04:07:00,28.6,22.2,29.36,NW,315,0.0,0.0,77,0.00,,,0.00,WUHU21623XXSP,2013-02-06 09:07:00,
2013-02-06 04:12:00,28.6,22.2,29.36,NW,315,0.0,0.0,77,0.00,,,0.00,WUHU21623XXSP,2013-02-06 09:12:00,
2013-02-06 04:17:00,28.6,22.2,29.37,NW,315,0.0,0.0,77,0.00,,,0.00,WUHU21623XXSP,2013-02-06 09:17:00,
2013-02-06 04:22:00,28.6,22.2,29.36,NNW,337,0.0,0.0,77,0.00,,,0.00,WUHU21623XXSP,2013-02-06 09:22:00,
2013-02-06 04:27:00,28.6,22.2,29.36,West,270,0.0,0.0,77,0.00,,,0.00,WUHU21623XXSP,2013-02-06 09:27:00,
2013-02-06 04:32:00,28.6,22.2,29.36,WSW,247,0.0,0.0,77,0.00,,,0.00,WUHU21623XXSP,2013-02-06 09:32:00,
2013-02-06 04:37:00,28.6,22.2,29.37,NW,315,0.0,0.0,77,0.00,,,0.00,WUHU21623XXSP,2013-02-06 09:37:00,
2013-02-06 04:42:00,28.6,22.2,29.37,WNW,292,0.0,0.0,77,0.00,,,0.00,WUHU21623XXSP,2013-02-06 09:42:00,
2013-02-06 04:47:00,28.6,22.2,29.37,NNW,337,0.0,0.0,77,0.00,,,0.00,WUHU21623XXSP,2013-02-06 09:47:00,
2013-02-06 04:52:00,28.6,22.2,29.37,NW,315,0.0,0.0,77,0.00,,,0.00,WUHU21623XXSP,2013-02-06 09:52:00,
2013-02-06 04:57:00,28.6,22.2,29.37,West,270,0.0,0.0,77,0.00,,,0.00,WUHU21623XXSP,2013-02-06 09:57:00,
2013-02-06 05:02:00,28.6,22.2,29.37,West,270,0.0,0.0,77,0.00,,,0.00,WUHU21623XXSP,2013-02-06 10:02:00,
2013-02-06 05:07:00,28.6,21.9,29.37,West,270,0.0,0.0,76,0.00,,,0.00,WUHU21623XXSP,2013-02-06 10:07:00,
2013-02-06 05:12:00,28.6,21.9,29.37,NW,315,0.0,0.0,76,0.00,,,0.00,WUHU21623XXSP,2013-02-06 10:12:00,
2013-02-06 05:17:00,28.6,22.2,29.39,WNW,292,0.0,0.0,77,0.00,,,0.00,WUHU21623XXSP,2013-02-06 10:17:00,
2013-02-06 05:22:00,28.6,22.2,29.39,NNW,337,0.0,0.0,77,0.00,,,0.00,WUHU21623XXSP,2013-02-06 10:22:00,
2013-02-06 05:27:00,28.6,22.2,29.39,WNW,292,0.0,0.0,77,0.00,,,0.00,WUHU21623XXSP,2013-02-06 10:27:00,
2013-02-06 05:32:00,28.6,21.9,29.39,NNW,337,0.0,0.0,76,0.00,,,0.00,WUHU21623XXSP,2013-02-06 10:32:00,
2013-02-06 05:37:00,28.6,21.9,29.40,NW,315,0.0,0.0,76,0.00,,,0.00,WUHU21623XXSP,2013-02-06 10:37:00,
2013-02-06 05:42:00,28.6,21.9,29.40,West,270,0.0,0.0,76,0.00,,,0.00,WUHU21623XXSP,2013-02-06 10:42:00,
2013-02-06 05:47:00,28.6,21.9,29.41,West,270,0.0,0.0,76,0.00,,,0.00,WUHU21623XXSP,2013-02-06 10:47:00,
2013-02-06 05:52:00,28.6,21.9,29.41,WSW,247,0.0,0.0,76,0.00,,,0.00,WUHU21623XXSP,2013-02-06 10:52:00,
2013-02-06 05:57:00,28.6,21.9,29.41,WSW,247,0.0,0.0,76,0.00,,,0.00,WUHU21623XXSP,2013-02-06 10:57:00,
2013-02-06 06:02:00,28.6,21.9,29.41,WNW,292,0.0,0.0,76,0.00,,,0.00,WUHU21623XXSP,2013-02-06 11:02:00,
2013-02-06 06:07:00,28.6,21.6,29.41,West,270,0.0,0.0,75,0.00,,,0.00,WUHU21623XXSP,2013-02-06 11:07:00,
2013-02-06 06:12:00,28.6,21.6,29.41,WNW,292,0.0,0.0,75,0.00,,,0.00,WUHU21623XXSP,2013-02-06 11:12:00,
2013-02-06 06:17:00,28.6,21.6,29.41,NW,315,0.0,0.0,75,0.00,,,0.00,WUHU21623XXSP,2013-02-06 11:17:00,
2013-02-06 06:22:00,28.6,21.6,29.41,West,270,0.0,0.0,75,0.00,,,0.00,WUHU21623XXSP,2013-02-06 11:22:00,
2013-02-06 06:27:00,28.6,21.6,29.42,WNW,292,0.0,0.0,75,0.00,,,0.00,WUHU21623XXSP,2013-02-06 11:27:00,
2013-02-06 06:32:00,28.6,21.6,29.43,West,270,0.0,0.0,75,0.00,,,0.00,WUHU21623XXSP,2013-02-06 11:32:00,
2013-02-06 06:37:00,28.6,21.6,29.43,NW,315,0.0,0.0,75,0.00,,,0.00,WUHU21623XXSP,2013-02-06 11:37:00,
2013-02-06 06:42:00,28.6,21.6,29.43,WSW,247,0.0,0.0,75,0.00,,,0.00,WUHU21623XXSP,2013-02-06 11:42:00,
2013-02-06 06:48:00,28.6,21.6,29.42,NW,315,0.0,0.0,75,0.00,,,0.00,WUHU21623XXSP,2013-02-06 11:48:00,
2013-02-06 06:53:00,28.6,21.6,29.43,WSW,247,0.0,0.0,75,0.00,,,0.00,WUHU21623XXSP,2013-02-06 11:53:00,
2013-02-06 06:58:00,28.6,21.6,29.43,West,270,0.0,0.0,75,0.00,,,0.00,WUHU21623XXSP,2013-02-06 11:58:00,
2013-02-06 07:03:00,28.6,21.6,29.43,WNW,292,0.0,0.0,75,0.00,,,0.00,WUHU21623XXSP,2013-02-06 12:03:00,
2013-02-06 07:08:00,28.6,21.5,29.43,WNW,292,0.0,0.0,75,0.00,,,0.00,WUHU21623XXSP,2013-02-06 12:08:00,
2013-02-06 07:13:00,28.4,21.5,29.43,West,270,0.0,0.0,75,0.00,,,0.00,WUHU21623XXSP,2013-02-06 12:13:00,
2013-02-06 07:18:00,28.4,21.3,29.43,NNW,337,0.0,0.0,75,0.00,,,0.00,WUHU21623XXSP,2013-02-06 12:18:00,
2013-02-06 07:23:00,28.4,21.5,29.43,West,270,0.0,0.0,75,0.00,,,0.00,WUHU21623XXSP,2013-02-06 12:23:00,
2013-02-06 07:28:00,28.2,21.3,29.43,West,270,0.0,0.0,75,0.00,,,0.00,WUHU21623XXSP,2013-02-06 12:28:00,
2013-02-06 07:33:00,28.2,21.0,29.44,WNW,292,0.0,0.0,74,0.00,,,0.00,WUHU21623XXSP,2013-02-06 12:33:00,
2013-02-06 07:38:00,28.4,21.2,29.44,NW,315,0.0,0.0,74,0.00,,,0.00,WUHU21623XXSP,2013-02-06 12:38:00,
2013-02-06 07:43:00,28.6,21.2,29.44,NW,315,0.0,0.0,74,0.00,,,0.00,WUHU21623XXSP,2013-02-06 12:43:00,
2013-02-06 07:48:00,28.2,21.3,29.44,NNW,337,0.0,0.0,75,0.00,,,0.00,WUHU21623XXSP,2013-02-06 12:48:00,
2013-02-06 07:53:00,28.2,21.3,29.44,NW,315,0.0,0.0,75,0.00,,,0.00,WUHU21623XXSP,2013-02-06 12:53:00,
2013-02-06 07:58:00,28.2,21.3,29.44,NNW,337,0.0,0.0,75,0.00,,,0.00,WUHU21623XXSP,2013-02-06 12:58:00,
2013-02-06 08:03:00,28.2,21.3,29.44,NNW,337,0.0,0.0,75,0.00,,,0.00,WUHU21623XXSP,2013-02-06 13:03:00,
2013-02-06 08:08:00,28.4,21.3,29.45,NW,315,0.0,0.0,75,0.00,,,0.00,WUHU21623XXSP,2013-02-06 13:08:00,
2013-02-06 08:13:00,28.4,21.3,29.45,NW,315,0.0,0.0,75,0.00,,,0.00,WUHU21623XXSP,2013-02-06 13:13:00,
2013-02-06 08:18:00,28.6,21.6,29.45,NNW,337,0.0,0.0,75,0.00,,,0.00,WUHU21623XXSP,2013-02-06 13:18:00,
2013-02-06 08:23:00,28.6,21.6,29.45,NNW,337,0.0,0.0,75,0.00,,,0.00,WUHU21623XXSP,2013-02-06 13:23:00,
2013-02-06 08:28:00,28.6,21.6,29.45,NW,315,0.0,0.0,75,0.00,,,0.00,WUHU21623XXSP,2013-02-06 13:28:00,
2013-02-06 08:33:00,28.6,21.6,29.45,NW,315,0.0,0.0,75,0.00,,,0.00,WUHU21623XXSP,2013-02-06 13:33:00,
2013-02-06 08:38:00,28.8,21.8,29.45,WSW,247,0.0,0.0,75,0.00,,,0.00,WUHU21623XXSP,2013-02-06 13:38:00,
2013-02-06 08:43:00,28.8,21.8,29.46,WSW,247,0.0,0.0,75,0.00,,,0.00,WUHU21623XXSP,2013-02-06 13:43:00,
2013-02-06 08:48:00,28.8,21.8,29.46,WSW,247,0.0,0.0,75,0.00,,,0.00,WUHU21623XXSP,2013-02-06 13:48:00,
2013-02-06 08:53:00,28.8,21.8,29.46,West,270,0.0,0.0,75,0.00,,,0.00,WUHU21623XXSP,2013-02-06 13:53:00,
2013-02-06 08:58:00,28.9,22.3,29.45,West,270,0.0,0.0,76,0.00,,,0.00,WUHU21623XXSP,2013-02-06 13:58:00,
2013-02-06 09:03:00,29.1,22.0,29.46,WSW,247,0.0,0.0,74,0.00,,,0.00,WUHU21623XXSP,2013-02-06 14:03:00,
2013-02-06 09:08:00,29.1,21.8,29.46,West,270,0.0,0.0,74,0.00,,,0.00,WUHU21623XXSP,2013-02-06 14:08:00,
2013-02-06 09:13:00,29.3,22.0,29.46,West,270,0.0,0.0,74,0.00,,,0.00,WUHU21623XXSP,2013-02-06 14:13:00,
2013-02-06 09:18:00,29.5,21.8,29.46,WSW,247,0.0,0.0,73,0.00,,,0.00,WUHU21623XXSP,2013-02-06 14:18:00,
2013-02-06 09:23:00,29.7,21.7,29.46,West,270,0.0,0.0,72,0.00,,,0.00,WUHU21623XXSP,2013-02-06 14:23:00,
2013-02-06 09:28:00,29.8,21.9,29.46,SSW,202,0.0,0.0,72,0.00,,,0.00,WUHU21623XXSP,2013-02-06 14:28:00,
2013-02-06 09:33:00,30.2,22.0,29.46,South,180,0.0,0.0,72,0.00,,,0.00,WUHU21623XXSP,2013-02-06 14:33:00,
2013-02-06 09:38:00,30.4,22.4,29.46,SSW,202,0.0,0.0,72,0.00,,,0.00,WUHU21623XXSP,2013-02-06 14:38:00,
2013-02-06 09:43:00,30.7,22.7,29.45,SSE,157,0.0,0.0,72,0.00,,,0.00,WUHU21623XXSP,2013-02-06 14:43:00,
2013-02-06 09:48:00,30.9,22.7,29.45,SE,135,0.0,0.0,71,0.00,,,0.00,WUHU21623XXSP,2013-02-06 14:48:00,
2013-02-06 09:53:00,31.3,22.8,29.45,SE,135,0.0,0.0,71,0.00,,,0.00,WUHU21623XXSP,2013-02-06 14:53:00,
2013-02-06 09:58:00,31.6,23.3,29.45,ESE,112,0.0,0.0,71,0.00,,,0.00,WUHU21623XXSP,2013-02-06 14:58:00,
2013-02-06 10:03:00,31.8,23.5,29.45,SE,135,0.0,0.0,71,0.00,,,0.00,WUHU21623XXSP,2013-02-06 15:03:00,
2013-02-06 10:08:00,31.8,23.2,29.46,SSE,157,0.0,0.0,70,0.00,,,0.00,WUHU21623XXSP,2013-02-06 15:08:00,
2013-02-06 10:13:00,32.2,23.5,29.47,SE,135,0.0,0.0,70,0.00,,,0.00,WUHU21623XXSP,2013-02-06 15:13:00,
2013-02-06 10:19:00,32.5,23.3,29.47,East,90,0.0,0.0,69,0.00,,,0.00,WUHU21623XXSP,2013-02-06 15:19:00,
2013-02-06 10:24:00,32.5,23.5,29.47,ENE,67,0.0,0.0,69,0.00,,,0.00,WUHU21623XXSP,2013-02-06 15:24:00,
2013-02-06 10:29:00,32.9,23.3,29.47,SE,135,0.0,0.0,68,0.00,,,0.00,WUHU21623XXSP,2013-02-06 15:29:00,
2013-02-06 10:34:00,33.1,23.4,29.47,SE,135,0.0,0.0,68,0.00,,,0.00,WUHU21623XXSP,2013-02-06 15:34:00,
2013-02-06 10:39:00,33.3,23.3,29.47,SE,135,0.0,0.0,67,0.00,,,0.00,WUHU21623XXSP,2013-02-06 15:39:00,
2013-02-06 10:44:00,33.4,23.6,29.47,SE,135,0.0,0.0,67,0.00,,,0.00,WUHU21623XXSP,2013-02-06 15:44:00,
2013-02-06 10:49:00,33.6,23.4,29.48,South,180,0.0,0.0,66,0.00,,,0.00,WUHU21623XXSP,2013-02-06 15:49:00,
2013-02-06 10:54:00,34.0,23.4,29.48,SSE,157,2.2,2.2,66,0.00,,,0.00,WUHU21623XXSP,2013-02-06 15:54:00,
2013-02-06 10:59:00,34.0,23.7,29.48,SSE,157,2.2,2.2,66,0.00,,,0.00,WUHU21623XXSP,2013-02-06 15:59:00,
2013-02-06 11:04:00,34.0,23.5,29.48,ENE,67,2.2,2.2,65,0.00,,,0.00,WUHU21623XXSP,2013-02-06 16:04:00,
2013-02-06 11:09:00,34.5,23.9,29.48,SSE,157,0.0,2.2,65,0.00,,,0.00,WUHU21623XXSP,2013-02-06 16:09:00,
2013-02-06 11:14:00,34.7,23.7,29.49,ESE,112,2.0,2.0,64,0.00,,,0.00,WUHU21623XXSP,2013-02-06 16:14:00,
2013-02-06 11:19:00,34.9,23.9,29.49,SE,135,3.6,3.6,64,0.00,,,0.00,WUHU21623XXSP,2013-02-06 16:19:00,
2013-02-06 11:24:00,35.4,24.3,29.49,ESE,112,0.0,3.6,64,0.00,,,0.00,WUHU21623XXSP,2013-02-06 16:24:00,
2013-02-06 11:29:00,35.6,24.6,29.48,ESE,112,0.0,3.6,64,0.00,,,0.00,WUHU21623XXSP,2013-02-06 16:29:00,
2013-02-06 11:34:00,35.6,24.6,29.48,ESE,112,2.5,2.5,64,0.00,,,0.00,WUHU21623XXSP,2013-02-06 16:34:00,
2013-02-06 11:39:00,36.3,25.3,29.48,SSE,157,0.0,2.5,63,0.00,,,0.00,WUHU21623XXSP,2013-02-06 16:39:00,
2013-02-06 11:44:00,36.5,25.1,29.48,SSE,157,0.0,0.0,63,0.00,,,0.00,WUHU21623XXSP,2013-02-06 16:44:00,
2013-02-06 11:49:00,36.9,25.5,29.49,ENE,67,0.0,0.0,63,0.00,,,0.00,WUHU21623XXSP,2013-02-06 16:49:00,
2013-02-06 11:54:00,37.0,25.6,29.49,NE,45,2.0,2.0,63,0.00,,,0.00,WUHU21623XXSP,2013-02-06 16:54:00,
2013-02-06 11:59:00,37.2,25.4,29.49,NE,45,2.0,2.0,62,0.00,,,0.00,WUHU21623XXSP,2013-02-06 16:59:00,
2013-02-06 12:04:00,37.2,25.4,29.48,NE,45,2.0,2.0,62,0.00,,,0.00,WUHU21623XXSP,2013-02-06 17:04:00,
2013-02-06 12:09:00,37.6,25.6,29.48,SE,135,2.7,2.7,62,0.00,,,0.00,WUHU21623XXSP,2013-02-06 17:09:00,
2013-02-06 12:14:00,37.9,25.7,29.48,SE,135,2.7,2.7,62,0.00,,,0.00,WUHU21623XXSP,2013-02-06 17:14:00,
2013-02-06 12:19:00,37.9,26.0,29.48,SE,135,2.7,2.7,62,0.00,,,0.00,WUHU21623XXSP,2013-02-06 17:19:00,
2013-02-06 12:24:00,38.1,26.2,29.47,SE,135,2.9,2.9,62,0.00,,,0.00,WUHU21623XXSP,2013-02-06 17:24:00,
2013-02-06 12:29:00,38.3,26.4,29.47,SE,135,2.9,2.9,62,0.00,,,0.00,WUHU21623XXSP,2013-02-06 17:29:00,
2013-02-06 12:34:00,38.3,26.4,29.47,SE,135,2.9,2.9,62,0.00,,,0.00,WUHU21623XXSP,2013-02-06 17:34:00,
2013-02-06 12:39:00,38.5,26.5,29.47,SE,135,2.9,2.9,62,0.00,,,0.00,WUHU21623XXSP,2013-02-06 17:39:00,
2013-02-06 12:44:00,38.8,26.9,29.47,SE,135,2.9,2.9,62,0.00,,,0.00,WUHU21623XXSP,2013-02-06 17:44:00,
2013-02-06 12:49:00,38.8,26.9,29.47,SE,135,2.9,2.9,62,0.00,,,0.00,WUHU21623XXSP,2013-02-06 17:49:00,
2013-02-06 12:55:00,38.8,26.9,29.47,SE,135,2.9,2.9,62,0.00,,,0.00,WUHU21623XXSP,2013-02-06 17:55:00,
2013-02-06 13:00:00,39.0,26.9,29.47,SE,135,2.9,2.9,60,0.00,,,0.00,WUHU21623XXSP,2013-02-06 18:00:00,
2013-02-06 13:05:00,39.0,26.6,29.47,SE,135,2.9,2.9,61,0.00,,,0.00,WUHU21623XXSP,2013-02-06 18:05:00,
2013-02-06 13:10:00,39.4,26.3,29.47,SE,135,2.9,2.9,60,0.00,,,0.00,WUHU21623XXSP,2013-02-06 18:10:00,
2013-02-06 13:15:00,39.0,26.4,29.47,SE,135,2.9,2.9,60,0.00,,,0.00,WUHU21623XXSP,2013-02-06 18:15:00,
2013-02-06 13:20:00,39.4,26.6,29.46,SW,225,2.0,2.9,61,0.00,,,0.00,WUHU21623XXSP,2013-02-06 18:20:00,
2013-02-06 13:25:00,39.4,27.0,29.46,SW,225,2.0,2.0,61,0.00,,,0.00,WUHU21623XXSP,2013-02-06 18:25:00,
2013-02-06 13:30:00,39.6,27.0,29.46,SW,225,2.0,2.0,61,0.00,,,0.00,WUHU21623XXSP,2013-02-06 18:30:00,
2013-02-06 13:35:00,39.7,27.2,29.46,SSW,202,0.0,2.0,61,0.00,,,0.00,WUHU21623XXSP,2013-02-06 18:35:00,
2013-02-06 13:40:00,39.6,26.8,29.46,SSE,157,0.0,2.0,60,0.00,,,0.00,WUHU21623XXSP,2013-02-06 18:40:00,
2013-02-06 13:45:00,39.6,26.6,29.46,SSE,157,0.7,0.7,60,0.00,,,0.00,WUHU21623XXSP,2013-02-06 18:45:00,
2013-02-06 13:50:00,39.7,27.2,29.47,SSW,202,1.8,1.8,61,0.00,,,0.00,WUHU21623XXSP,2013-02-06 18:50:00,
2013-02-06 13:55:00,39.7,27.3,29.47,SE,135,0.0,2.5,60,0.00,,,0.00,WUHU21623XXSP,2013-02-06 18:55:00,
2013-02-06 14:00:00,39.9,27.0,29.47,SE,135,0.0,2.5,60,0.00,,,0.00,WUHU21623XXSP,2013-02-06 19:00:00,
2013-02-06 14:05:00,39.9,26.7,29.47,SE,135,0.0,0.0,59,0.00,,,0.00,WUHU21623XXSP,2013-02-06 19:05:00,
2013-02-06 14:10:00,39.9,26.7,29.46,SE,135,0.0,0.0,59,0.00,,,0.00,WUHU21623XXSP,2013-02-06 19:10:00,
2013-02-06 14:15:00,39.7,27.0,29.45,South,180,3.8,3.8,60,0.00,,,0.00,WUHU21623XXSP,2013-02-06 19:15:00,
2013-02-06 14:20:00,39.6,27.0,29.46,ESE,112,0.0,3.8,60,0.00,,,0.00,WUHU21623XXSP,2013-02-06 19:20:00,
2013-02-06 14:25:00,39.7,27.3,29.45,SSW,202,2.5,3.1,61,0.00,,,0.00,WUHU21623XXSP,2013-02-06 19:25:00,
2013-02-06 14:30:00,39.7,27.0,29.45,SSW,202,0.0,5.4,60,0.00,,,0.00,WUHU21623XXSP,2013-02-06 19:30:00,
2013-02-06 14:35:00,39.6,26.8,29.45,SSE,157,0.0,5.4,60,0.00,,,0.00,WUHU21623XXSP,2013-02-06 19:35:00,
2013-02-06 14:40:00,39.7,27.3,29.45,SSW,202,3.8,3.8,61,0.00,,,0.00,WUHU21623XXSP,2013-02-06 19:40:00,
2013-02-06 14:45:00,39.7,27.3,29.44,East,90,2.9,3.8,61,0.00,,,0.00,WUHU21623XXSP,2013-02-06 19:45:00,
2013-02-06 14:50:00,39.7,27.0,29.44,SE,135,0.0,2.9,60,0.00,,,0.00,WUHU21623XXSP,2013-02-06 19:50:00,
2013-02-06 14:55:00,39.7,27.3,29.44,South,180,1.8,2.9,61,0.00,,,0.00,WUHU21623XXSP,2013-02-06 19:55:00,
2013-02-06 15:00:00,39.7,27.0,29.44,South,180,0.0,6.3,60,0.00,,,0.00,WUHU21623XXSP,2013-02-06 20:00:00,
2013-02-06 15:05:00,39.7,27.0,29.45,SE,135,0.0,6.3,60,0.00,,,0.00,WUHU21623XXSP,2013-02-06 20:05:00,
2013-02-06 15:10:00,39.7,27.3,29.45,SE,135,0.9,0.9,61,0.00,,,0.00,WUHU21623XXSP,2013-02-06 20:10:00,
2013-02-06 15:15:00,39.9,27.5,29.45,SE,135,0.0,0.9,61,0.00,,,0.00,WUHU21623XXSP,2013-02-06 20:15:00,
2013-02-06 15:20:00,40.1,27.7,29.44,SE,135,0.0,0.9,61,0.00,,,0.00,WUHU21623XXSP,2013-02-06 20:20:00,
2013-02-06 15:25:00,40.1,27.7,29.44,East,90,0.0,0.0,61,0.00,,,0.00,WUHU21623XXSP,2013-02-06 20:25:00,
2013-02-06 15:30:00,39.9,27.5,29.45,SE,135,0.0,0.0,61,0.00,,,0.00,WUHU21623XXSP,2013-02-06 20:30:00,
2013-02-06 15:35:00,39.9,27.1,29.45,WSW,247,0.0,3.4,60,0.00,,,0.00,WUHU21623XXSP,2013-02-06 20:35:00,
2013-02-06 15:41:00,39.4,26.1,29.45,SE,135,0.0,3.4,59,0.00,,,0.00,WUHU21623XXSP,2013-02-06 20:41:00,
2013-02-06 15:45:00,39.0,26.6,29.47,SW,225,0.0,1.3,61,0.00,,,0.00,WUHU21623XXSP,2013-02-06 20:45:00,
2013-02-06 15:50:00,39.0,26.6,29.46,SSE,157,0.0,1.3,61,0.00,,,0.00,WUHU21623XXSP,2013-02-06 20:50:00,
2013-02-06 15:56:00,39.2,26.8,29.47,SE,135,0.0,0.0,61,0.00,,,0.00,WUHU21623XXSP,2013-02-06 20:56:00,
2013-02-06 16:01:00,39.4,27.4,29.47,SE,135,0.0,0.0,62,0.00,,,0.00,WUHU21623XXSP,2013-02-06 21:01:00,
2013-02-06 16:06:00,39.4,27.4,29.47,South,180,0.0,0.0,62,0.00,,,0.00,WUHU21623XXSP,2013-02-06 21:06:00,
2013-02-06 16:11:00,39.2,26.8,29.47,SSW,202,0.0,4.5,61,0.00,,,0.00,WUHU21623XXSP,2013-02-06 21:11:00,
2013-02-06 16:16:00,39.0,26.3,29.47,SSE,157,0.0,4.5,60,0.00,,,0.00,WUHU21623XXSP,2013-02-06 21:16:00,
2013-02-06 16:21:00,39.0,26.3,29.46,SSE,157,0.0,0.0,60,0.00,,,0.00,WUHU21623XXSP,2013-02-06 21:21:00,
2013-02-06 16:26:00,39.0,26.6,29.46,SSE,157,0.0,0.0,61,0.00,,,0.00,WUHU21623XXSP,2013-02-06 21:26:00,
2013-02-06 16:31:00,38.8,26.6,29.45,ESE,112,0.0,0.0,61,0.00,,,0.00,WUHU21623XXSP,2013-02-06 21:31:00,
2013-02-06 16:36:00,38.8,26.9,29.46,NE,45,0.0,0.0,62,0.00,,,0.00,WUHU21623XXSP,2013-02-06 21:36:00,
2013-02-06 16:41:00,38.5,26.5,29.46,SSE,157,0.0,0.0,62,0.00,,,0.00,WUHU21623XXSP,2013-02-06 21:41:00,
2013-02-06 16:46:00,38.5,26.5,29.46,South,180,0.0,0.0,62,0.00,,,0.00,WUHU21623XXSP,2013-02-06 21:46:00,
2013-02-06 16:51:00,38.3,26.7,29.45,SE,135,0.0,0.0,63,0.00,,,0.00,WUHU21623XXSP,2013-02-06 21:51:00,
2013-02-06 16:56:00,38.1,26.7,29.45,ESE,112,0.0,0.0,63,0.00,,,0.00,WUHU21623XXSP,2013-02-06 21:56:00,
2013-02-06 17:01:00,37.9,26.4,29.45,SE,135,0.0,0.0,63,0.00,,,0.00,WUHU21623XXSP,2013-02-06 22:01:00,
2013-02-06 17:06:00,37.9,26.8,29.45,SE,135,0.0,0.0,64,0.00,,,0.00,WUHU21623XXSP,2013-02-06 22:06:00,
2013-02-06 17:11:00,37.8,26.6,29.46,East,90,0.0,0.0,64,0.00,,,0.00,WUHU21623XXSP,2013-02-06 22:11:00,
2013-02-06 17:16:00,37.6,26.9,29.45,ENE,67,0.0,0.0,65,0.00,,,0.00,WUHU21623XXSP,2013-02-06 22:16:00,
2013-02-06 17:21:00,37.2,26.5,29.46,ESE,112,0.0,0.0,65,0.00,,,0.00,WUHU21623XXSP,2013-02-06 22:21:00,
2013-02-06 17:26:00,36.9,26.2,29.45,SE,135,0.0,0.0,65,0.00,,,0.00,WUHU21623XXSP,2013-02-06 22:26:00,
2013-02-06 17:31:00,36.5,26.2,29.44,ENE,67,0.0,0.0,66,0.00,,,0.00,WUHU21623XXSP,2013-02-06 22:31:00,
2013-02-06 17:36:00,36.3,26.0,29.44,SE,135,0.0,0.0,66,0.00,,,0.00,WUHU21623XXSP,2013-02-06 22:36:00,
2013-02-06 17:41:00,35.8,25.9,29.44,ESE,112,0.0,0.0,67,0.00,,,0.00,WUHU21623XXSP,2013-02-06 22:41:00,
2013-02-06 17:46:00,35.4,25.5,29.44,East,90,0.0,0.0,67,0.00,,,0.00,WUHU21623XXSP,2013-02-06 22:46:00,
2013-02-06 17:51:00,35.2,25.3,29.44,East,90,4.3,4.3,67,0.00,,,0.00,WUHU21623XXSP,2013-02-06 22:51:00,
2013-02-06 17:56:00,34.9,25.3,29.44,ESE,112,0.0,4.3,68,0.00,,,0.00,WUHU21623XXSP,2013-02-06 22:56:00,
2013-02-06 18:01:00,34.7,25.2,29.45,SSE,157,0.0,0.0,68,0.00,,,0.00,WUHU21623XXSP,2013-02-06 23:01:00,
2013-02-06 18:06:00,34.5,25.3,29.45,SSE,157,0.0,0.0,69,0.00,,,0.00,WUHU21623XXSP,2013-02-06 23:06:00,
2013-02-06 18:12:00,34.2,25.3,29.45,SSE,157,0.0,3.1,70,0.00,,,0.00,WUHU21623XXSP,2013-02-06 23:12:00,
2013-02-06 18:17:00,34.0,25.2,29.45,SE,135,0.0,3.1,70,0.00,,,0.00,WUHU21623XXSP,2013-02-06 23:17:00,
2013-02-06 18:22:00,33.8,25.0,29.46,SE,135,0.0,0.0,71,0.00,,,0.00,WUHU21623XXSP,2013-02-06 23:22:00,
2013-02-06 18:27:00,33.6,25.1,29.46,South,180,0.0,0.0,71,0.00,,,0.00,WUHU21623XXSP,2013-02-06 23:27:00,
2013-02-06 18:32:00,33.6,25.1,29.47,SE,135,0.0,0.0,71,0.00,,,0.00,WUHU21623XXSP,2013-02-06 23:32:00,
2013-02-06 18:37:00,33.3,24.8,29.46,SE,135,0.0,0.0,71,0.00,,,0.00,WUHU21623XXSP,2013-02-06 23:37:00,
2013-02-06 18:42:00,33.1,25.0,29.47,ESE,112,0.0,0.0,72,0.00,,,0.00,WUHU21623XXSP,2013-02-06 23:42:00,
2013-02-06 18:47:00,32.9,24.8,29.46,ESE,112,0.0,0.0,72,0.00,,,0.00,WUHU21623XXSP,2013-02-06 23:47:00,
2013-02-06 18:52:00,32.7,24.7,29.46,ESE,112,2.7,2.7,72,0.00,,,0.00,WUHU21623XXSP,2013-02-06 23:52:00,
2013-02-06 18:57:00,32.5,24.8,29.46,SSE,157,0.0,2.7,73,0.00,,,0.00,WUHU21623XXSP,2013-02-06 23:57:00,
2013-02-06 19:02:00,32.5,25.1,29.46,ESE,112,0.0,2.7,74,0.00,,,0.00,WUHU21623XXSP,2013-02-07 00:02:00,
2013-02-06 19:07:00,32.4,25.0,29.45,ESE,112,2.5,4.5,74,0.00,,,0.00,WUHU21623XXSP,2013-02-07 00:07:00,
2013-02-06 19:12:00,32.2,24.8,29.45,SSE,157,0.0,4.5,74,0.00,,,0.00,WUHU21623XXSP,2013-02-07 00:12:00,
2013-02-06 19:17:00,32.2,25.1,29.44,ENE,67,0.9,2.5,75,0.00,,,0.00,WUHU21623XXSP,2013-02-07 00:17:00,
2013-02-06 19:22:00,31.8,24.8,29.44,SE,135,7.8,7.8,75,0.00,,,0.00,WUHU21623XXSP,2013-02-07 00:22:00,
2013-02-06 19:27:00,31.8,24.8,29.44,SE,135,1.8,7.8,75,0.00,,,0.00,WUHU21623XXSP,2013-02-07 00:27:00,
2013-02-06 19:32:00,31.8,24.8,29.44,SSE,157,2.2,2.2,75,0.00,,,0.00,WUHU21623XXSP,2013-02-07 00:32:00,
2013-02-06 19:37:00,31.8,25.1,29.44,East,90,0.0,2.2,76,0.00,,,0.00,WUHU21623XXSP,2013-02-07 00:37:00,
2013-02-06 19:42:00,31.8,25.1,29.44,SE,135,0.0,0.0,76,0.00,,,0.00,WUHU21623XXSP,2013-02-07 00:42:00,
2013-02-06 19:47:00,31.6,24.9,29.44,ESE,112,0.0,0.0,76,0.00,,,0.00,WUHU21623XXSP,2013-02-07 00:47:00,
2013-02-06 19:52:00,31.6,24.9,29.43,ENE,67,0.0,4.7,76,0.00,,,0.00,WUHU21623XXSP,2013-02-07 00:52:00,
2013-02-06 19:57:00,31.6,25.3,29.42,ENE,67,0.0,4.7,77,0.00,,,0.00,WUHU21623XXSP,2013-02-07 00:57:00,
2013-02-06 20:02:00,31.6,25.3,29.42,SE,135,2.5,3.1,77,0.00,,,0.00,WUHU21623XXSP,2013-02-07 01:02:00,
2013-02-06 20:07:00,31.3,24.9,29.42,SSE,157,5.6,5.6,77,0.00,,,0.00,WUHU21623XXSP,2013-02-07 01:07:00,
2013-02-06 20:12:00,31.3,24.9,29.42,SE,135,0.0,5.6,77,0.00,,,0.00,WUHU21623XXSP,2013-02-07 01:12:00,
2013-02-06 20:17:00,31.3,24.9,29.43,ESE,112,1.8,6.9,77,0.00,,,0.00,WUHU21623XXSP,2013-02-07 01:17:00,
2013-02-06 20:22:00,31.3,24.9,29.43,SSE,157,4.0,6.9,77,0.00,,,0.00,WUHU21623XXSP,2013-02-07 01:22:00,
2013-02-06 20:27:00,31.3,24.9,29.44,ESE,112,0.0,4.0,77,0.00,,,0.00,WUHU21623XXSP,2013-02-07 01:27:00,
2013-02-06 20:32:00,31.3,24.9,29.43,SE,135,4.0,5.1,77,0.00,,,0.00,WUHU21623XXSP,2013-02-07 01:32:00,
2013-02-06 20:37:00,31.3,25.2,29.43,SE,135,0.9,5.1,78,0.00,,,0.00,WUHU21623XXSP,2013-02-07 01:37:00,
2013-02-06 20:42:00,31.3,25.2,29.43,East,90,0.0,0.9,78,0.00,,,0.00,WUHU21623XXSP,2013-02-07 01:42:00,
2013-02-06 20:47:00,31.3,25.2,29.44,SE,135,2.5,2.5,78,0.00,,,0.00,WUHU21623XXSP,2013-02-07 01:47:00,
2013-02-06 20:52:00,31.3,25.2,29.44,SSE,157,2.9,2.9,78,0.00,,,0.00,WUHU21623XXSP,2013-02-07 01:52:00,
2013-02-06 20:57:00,31.3,25.2,29.44,SSE,157,0.0,2.9,78,0.00,,,0.00,WUHU21623XXSP,2013-02-07 01:57:00,
2013-02-06 21:02:00,31.1,25.1,29.43,SSE,157,0.0,2.9,78,0.00,,,0.00,WUHU21623XXSP,2013-02-07 02:02:00,
2013-02-06 21:07:00,31.3,25.2,29.43,SE,135,0.0,0.0,78,0.00,,,0.00,WUHU21623XXSP,2013-02-07 02:07:00,
2013-02-06 21:12:00,31.1,25.1,29.43,SE,135,0.0,0.0,78,0.00,,,0.00,WUHU21623XXSP,2013-02-07 02:12:00,
2013-02-06 21:17:00,31.1,25.1,29.44,ESE,112,0.0,0.0,78,0.00,,,0.00,WUHU21623XXSP,2013-02-07 02:17:00,
2013-02-06 21:22:00,31.1,25.1,29.44,East,90,0.0,0.0,78,0.00,,,0.00,WUHU21623XXSP,2013-02-07 02:22:00,
2013-02-06 21:27:00,31.1,25.1,29.44,SSE,157,0.0,0.0,78,0.00,,,0.00,WUHU21623XXSP,2013-02-07 02:27:00,
2013-02-06 21:32:00,30.9,25.1,29.44,South,180,0.0,0.0,78,0.00,,,0.00,WUHU21623XXSP,2013-02-07 02:32:00,
2013-02-06 21:37:00,30.9,24.9,29.44,SSE,157,0.0,0.0,78,0.00,,,0.00,WUHU21623XXSP,2013-02-07 02:37:00,
2013-02-06 21:42:00,30.9,24.9,29.44,SSE,157,0.0,0.0,78,0.00,,,0.00,WUHU21623XXSP,2013-02-07 02:42:00,
2013-02-06 21:47:00,30.7,24.7,29.44,SE,135,0.0,0.0,78,0.00,,,0.00,WUHU21623XXSP,2013-02-07 02:47:00,
2013-02-06 21:52:00,30.7,25.0,29.44,SE,135,0.0,0.0,79,0.00,,,0.00,WUHU21623XXSP,2013-02-07 02:52:00,
2013-02-06 21:57:00,30.7,25.0,29.44,SSE,157,0.0,0.0,79,0.00,,,0.00,WUHU21623XXSP,2013-02-07 02:57:00,
2013-02-06 22:02:00,30.7,25.0,29.44,SSE,157,0.0,0.0,79,0.00,,,0.00,WUHU21623XXSP,2013-02-07 03:02:00,
2013-02-06 22:07:00,30.6,24.8,29.44,SE,135,0.0,0.0,79,0.00,,,0.00,WUHU21623XXSP,2013-02-07 03:07:00,
2013-02-06 22:13:00,30.6,24.8,29.44,SE,135,0.0,0.0,79,0.00,,,0.00,WUHU21623XXSP,2013-02-07 03:13:00,
2013-02-06 22:17:00,30.4,24.7,29.43,SSE,157,0.0,0.0,79,0.00,,,0.00,WUHU21623XXSP,2013-02-07 03:17:00,
2013-02-06 22:23:00,30.2,24.8,29.43,SE,135,0.0,0.0,80,0.00,,,0.00,WUHU21623XXSP,2013-02-07 03:23:00,
2013-02-06 22:28:00,30.2,24.8,29.42,East,90,0.0,0.0,80,0.00,,,0.00,WUHU21623XXSP,2013-02-07 03:28:00,
2013-02-06 22:33:00,30.0,24.6,29.41,ESE,112,0.0,0.0,80,0.00,,,0.00,WUHU21623XXSP,2013-02-07 03:33:00,
2013-02-06 22:38:00,30.0,24.6,29.41,SE,135,0.0,0.0,81,0.00,,,0.00,WUHU21623XXSP,2013-02-07 03:38:00,
2013-02-06 22:43:00,30.0,24.9,29.40,SSE,157,2.2,2.2,81,0.00,,,0.00,WUHU21623XXSP,2013-02-07 03:43:00,
2013-02-06 22:48:00,30.0,24.9,29.41,East,90,0.0,2.2,81,0.00,,,0.00,WUHU21623XXSP,2013-02-07 03:48:00,
2013-02-06 22:53:00,30.0,24.9,29.41,SE,135,2.7,3.4,81,0.00,,,0.00,WUHU21623XXSP,2013-02-07 03:53:00,
2013-02-06 22:58:00,30.2,25.1,29.42,SE,135,0.0,3.4,81,0.00,,,0.00,WUHU21623XXSP,2013-02-07 03:58:00,
2013-02-06 23:03:00,30.4,25.1,29.43,SSW,202,0.0,0.0,81,0.00,,,0.00,WUHU21623XXSP,2013-02-07 04:03:00,
2013-02-06 23:08:00,30.4,25.3,29.43,South,180,0.0,0.0,81,0.00,,,0.00,WUHU21623XXSP,2013-02-07 04:08:00,
2013-02-06 23:13:00,30.4,25.3,29.42,South,180,0.0,0.0,81,0.00,,,0.00,WUHU21623XXSP,2013-02-07 04:13:00,
2013-02-06 23:18:00,30.4,25.3,29.42,SSE,157,0.0,0.0,81,0.00,,,0.00,WUHU21623XXSP,2013-02-07 04:18:00,
2013-02-06 23:23:00,30.6,25.4,29.42,SSE,157,0.0,0.0,81,0.00,,,0.00,WUHU21623XXSP,2013-02-07 04:23:00,
2013-02-06 23:28:00,30.7,25.4,29.42,ESE,112,0.0,0.0,81,0.00,,,0.00,WUHU21623XXSP,2013-02-07 04:28:00,
2013-02-06 23:33:00,30.6,25.4,29.42,ESE,112,0.0,0.0,81,0.00,,,0.00,WUHU21623XXSP,2013-02-07 04:33:00,
2013-02-06 23:38:00,30.7,25.6,29.42,SSE,157,0.0,0.0,81,0.00,,,0.00,WUHU21623XXSP,2013-02-07 04:38:00,
2013-02-06 23:43:00,30.7,25.9,29.42,NW,315,0.0,0.0,82,0.00,,,0.00,WUHU21623XXSP,2013-02-07 04:43:00,
2013-02-06 23:48:00,30.7,25.9,29.41,SE,135,0.0,0.0,82,0.00,,,0.00,WUHU21623XXSP,2013-02-07 04:48:00,
2013-02-06 23:53:00,30.7,25.9,29.41,ESE,112,0.0,0.0,82,0.00,,,0.00,WUHU21623XXSP,2013-02-07 04:53:00,
2013-02-06 23:58:00,30.7,25.9,29.41,SSE,157,0.0,0.0,82,0.00,,,0.00,WUHU21623XXSP,2013-02-07 04:58:00,